Location: Heisler
(52.6701°N, 112.2239°W)
Time: 09:12:06
(UTC+00:00)

Envisat - Pass Details

Date: 05 December 2021
Orbit: 764 x 766 km, 98.2° (Epoch: 25 January)

Event Time Altitude Azimuth Distance (km) Brightness Sun altitude
Rises 13:12:46 0° 12° (NNE) 3,248 6.2 -18.7°
Reaches altitude 10° 13:15:07 10° 8° (N) 2,317 5.4 -18.3°
Maximum altitude 13:20:07 58° 291° (WNW) 897 3.0 -17.6°
Drops below altitude 10° 13:25:04 10° 214° (SSW) 2,300 5.3 -16.9°
Sets 13:27:24 0° 210° (SSW) 3,222 6.1 -16.5°
